Torna al catalogo

STARLINK-4586

AttivoComunicazioniVLEO
NORAD 53636·PAYLOAD·🇺🇸 United States

Lanciato Aug 28, 2022 da Cape Canaveral Space Force Station

Loading…

Prossimi Passaggi (prossime 24 ore)

TLE

AggiornatoSource: CelesTrak SupGP

Epoca: Sep 14, 2026, 20:53 UTC

1 53636C 22104BA  26257.87062500  .00009149  00000+0  27042-3 0  2579
2 53636  53.1588  87.7367 0001311  84.2831  66.2370 15.34373215    14

Traccia STARLINK-4586 in tempo reale con AllMySat

Download on the App Store